DW9945 Daganzo de Arriba ES current weather conditions

sailwx.info

Wind at 2 knots gusting 5

Air temperature 19.4° C
Dewpoint 12.7° C

Last reported at 2018-Apr-21 17:03 UTC.
Time now 2018-Apr-21 17:23 UTC

Location: N 40°33' W 003°28'.
View on Google Maps.

See reports from other nearby stations

  
Tides and Currents Weather Stations Pressure Air Temp Water Temp Dewpoint Dewpoint Depression Visibility Wind Speed Wind Dir Waves Ship Positions
date/time (UTC)wind fromknots sea level pressurealtimeterstation pressurevisibilityair tempwater tempwave heightnotes
2018-Apr-21 17:08 19.4
2018-Apr-21 17:03 19.4
2018-Apr-21 16:58 039 5 gusting 6 19.4
2018-Apr-21 16:53 353 3 gusting 6 19.4
2018-Apr-21 16:48 040 3 gusting 6 20.0
2018-Apr-21 16:43 045 4 gusting 7 20.0
2018-Apr-21 16:38 045 3 gusting 6 20.0
2018-Apr-21 16:33 084 2 gusting 5 20.0
2018-Apr-21 16:28 045 3 gusting 6 20.0
2018-Apr-21 16:23 025 2 gusting 5 20.0
2018-Apr-21 16:18 20.0
2018-Apr-21 16:13 20.0
2018-Apr-21 16:08 315 1 gusting 6 20.0
2018-Apr-21 16:03 038 4 gusting 8 19.4
2018-Apr-21 15:58 018 5 gusting 8 19.4
2018-Apr-21 15:53 19.4
2018-Apr-21 15:48 315 3 gusting 6 18.9
2018-Apr-21 15:43 315 2 gusting 5 18.9
2018-Apr-21 15:38 321 4 gusting 5 18.9
2018-Apr-21 15:33 315 2 gusting 5 18.9
2018-Apr-21 15:28 18.9
2018-Apr-21 15:23 002 2 gusting 5 19.4
2018-Apr-21 15:18 326 4 gusting 6 19.4
2018-Apr-21 15:13 311 1 gusting 6 20.0
2018-Apr-21 15:08 186 2 gusting 6 19.4
2018-Apr-21 15:03 326 2 gusting 6 19.4
2018-Apr-21 14:58 328 2 gusting 5 19.4
2018-Apr-21 14:53 041 2 gusting 6 19.4
2018-Apr-21 14:48 039 1 gusting 5 19.4
2018-Apr-21 14:43 135 2 gusting 4 18.9
2018-Apr-21 14:38 070 1 gusting 6 18.3
2018-Apr-21 14:33 040 2 gusting 6 18.3
2018-Apr-21 14:28 085 4 gusting 6 18.3
2018-Apr-21 14:23 081 3 gusting 6 18.3
2018-Apr-21 14:18 082 4 gusting 7 18.3
2018-Apr-21 14:13 045 2 gusting 6 18.3
2018-Apr-21 14:08 051 3 gusting 6 17.8
2018-Apr-21 14:03 086 3 gusting 6 17.8
2018-Apr-21 13:58 135 4 gusting 8 17.8
2018-Apr-21 13:53 045 2 gusting 8 17.8
2018-Apr-21 13:48 090 5 gusting 8 17.2
2018-Apr-21 13:43 085 4 gusting 7 17.2
2018-Apr-21 13:38 061 2 gusting 11 17.2
2018-Apr-21 13:33 084 5 gusting 11 17.2
2018-Apr-21 13:28 045 4 gusting 11 17.2
2018-Apr-21 13:23 045 6 gusting 11 18.3
2018-Apr-21 13:18 048 6 gusting 13 17.2
2018-Apr-21 13:13 025 6 gusting 13 16.7
2018-Apr-21 13:08 045 6 gusting 12 16.7
2018-Apr-21 13:03 041 6 gusting 11 16.7
2018-Apr-21 12:58 16.1
2018-Apr-21 12:53 025 6 gusting 11 16.1
2018-Apr-21 12:48 045 6 gusting 11 16.1
2018-Apr-21 12:43 020 5 gusting 12 16.1
2018-Apr-21 12:38 038 7 gusting 12 15.6
2018-Apr-21 12:33 026 6 gusting 11 15.6
2018-Apr-21 12:28 002 5 gusting 8 16.1
2018-Apr-21 12:23 025 5 gusting 13 16.1
2018-Apr-21 12:18 040 6 gusting 11 15.6
2018-Apr-21 12:13 006 6 gusting 11 15.6
2018-Apr-21 12:08 058 8 gusting 13 15.6
2018-Apr-21 12:03 025 7 gusting 11 15.6
2018-Apr-21 11:58 028 5 gusting 10 15.6
2018-Apr-21 11:53 022 4 gusting 8 15.6
2018-Apr-21 11:48 045 4 gusting 8 15.6
2018-Apr-21 11:43 019 6 gusting 8 15.6
2018-Apr-21 11:38 025 4 gusting 7 15.6
2018-Apr-21 11:33 045 4 gusting 8 15.6
2018-Apr-21 11:28 004 6 gusting 8 15.6
2018-Apr-21 11:23 025 4 gusting 6 15.6
2018-Apr-21 11:18 040 4 gusting 7 15.0
2018-Apr-21 11:13 082 4 gusting 8 15.6
2018-Apr-21 11:08 045 4 gusting 7 15.6
2018-Apr-21 11:03 045 5 gusting 8 15.6
2018-Apr-21 10:58 090 2 gusting 6 15.6
2018-Apr-21 10:53 045 3 gusting 6 15.6
2018-Apr-21 10:48 090 1 gusting 4 15.6
2018-Apr-21 10:43 017 2 gusting 6 15.6
2018-Apr-21 10:38 045 3 gusting 5 15.0
2018-Apr-21 10:33 042 0 gusting 5 15.0
2018-Apr-21 10:28 045 3 gusting 6 15.0
2018-Apr-21 10:23 051 1 gusting 5 15.6
2018-Apr-21 10:18 004 2 gusting 6 15.0
2018-Apr-21 10:13 052 4 gusting 6 15.0
2018-Apr-21 10:08 045 0 gusting 2 15.0
2018-Apr-21 10:03 293 0 gusting 6 15.0
2018-Apr-21 09:58 010 4 gusting 6 15.0
2018-Apr-21 09:53 027 2 gusting 5 14.4
2018-Apr-21 09:48 045 4 gusting 8 14.4
2018-Apr-21 09:43 022 3 gusting 7 14.4
2018-Apr-21 09:38 071 5 gusting 7 14.4
2018-Apr-21 09:33 083 2 gusting 5 14.4
2018-Apr-21 09:28 051 0 gusting 5 14.4
2018-Apr-21 09:23 14.4
2018-Apr-21 09:18 045 1 gusting 5 13.9
2018-Apr-21 09:13 14.4
2018-Apr-21 09:08 038 1 gusting 5 13.9
2018-Apr-21 09:03 042 2 gusting 6 13.9
2018-Apr-21 08:58 045 5 gusting 6 13.9
2018-Apr-21 08:53 045 2 gusting 6 13.9
2018-Apr-21 08:48 022 2 gusting 5 13.9
2018-Apr-21 08:43 027 3 gusting 6 13.9
2018-Apr-21 08:38 076 2 gusting 5 13.9
2018-Apr-21 08:33 006 2 gusting 5 13.3
2018-Apr-21 08:28 005 2 gusting 5 13.3
2018-Apr-21 08:23 077 1 gusting 5 13.3
2018-Apr-21 08:18 045 13.3
2018-Apr-21 08:13 047 0 gusting 5 13.3
2018-Apr-21 08:08 041 2 gusting 6 13.3
2018-Apr-21 08:03 13.3
2018-Apr-21 07:58 045 2 gusting 6 13.3
2018-Apr-21 07:53 019 2 gusting 6 12.8
2018-Apr-21 07:48 041 4 gusting 6 12.8
2018-Apr-21 07:43 041 2 gusting 5 12.8
2018-Apr-21 07:38 044 1 gusting 4 12.8
2018-Apr-21 07:33 026 2 gusting 4 12.8
2018-Apr-21 07:28 040 2 gusting 5 12.8
2018-Apr-21 07:23 002 0 gusting 1 12.8
2018-Apr-21 07:18 12.2
2018-Apr-21 07:13 12.2
2018-Apr-21 07:08 12.2
2018-Apr-21 07:03 11.7
2018-Apr-21 06:58 11.7
2018-Apr-21 06:53 004 1 gusting 5 11.7
2018-Apr-21 06:48 11.1
2018-Apr-21 06:43 042 1 gusting 5 11.1
2018-Apr-21 06:38 008 2 gusting 6 11.1
2018-Apr-21 06:33 025 2 gusting 5 10.6
2018-Apr-21 06:28 004 2 gusting 5 10.6
2018-Apr-21 06:23 10.6
2018-Apr-21 06:18 10.0
2018-Apr-21 06:13 10.0
2018-Apr-21 06:08 10.0
2018-Apr-21 06:03 10.0
2018-Apr-21 05:58 9.4
2018-Apr-21 05:53 9.4
2018-Apr-21 05:48 019 4 gusting 6 9.4
2018-Apr-21 05:43 9.4
2018-Apr-21 05:38 9.4
2018-Apr-21 05:33 018 5 gusting 6 9.4
2018-Apr-21 05:28 9.4
2018-Apr-21 05:23 9.4
2018-Apr-21 05:18 9.4
2018-Apr-21 05:13 9.4
2018-Apr-21 05:08 022 4 gusting 6 9.4
2018-Apr-21 05:03 9.4
2018-Apr-21 04:58 8.9
2018-Apr-21 04:53 8.9
2018-Apr-21 04:48 8.9
2018-Apr-21 04:43 003 4 gusting 6 9.4
2018-Apr-21 04:38 004 5 gusting 6 9.4
2018-Apr-21 04:33 9.4
2018-Apr-21 04:28 004 4 gusting 6 9.4
2018-Apr-21 04:23 003 5 gusting 5 9.4
2018-Apr-21 04:18 003 4 gusting 6 9.4
2018-Apr-21 04:13 018 5 gusting 6 9.4
2018-Apr-21 04:08 9.4
2018-Apr-21 04:03 9.4
2018-Apr-21 03:58 9.4
2018-Apr-21 03:53 9.4
2018-Apr-21 03:48 9.4
2018-Apr-21 03:43 10.0
2018-Apr-21 03:38 10.0
2018-Apr-21 03:33 10.0
2018-Apr-21 03:28 022 5 gusting 6 10.0
2018-Apr-21 03:23 10.0
2018-Apr-21 03:18 003 4 gusting 6 10.0
2018-Apr-21 03:13 003 4 gusting 6 10.6
2018-Apr-21 03:08 045 4 gusting 6 10.0
2018-Apr-21 03:03 022 5 gusting 6 10.0
2018-Apr-21 02:58 042 2 gusting 5 10.0
2018-Apr-21 02:53 10.0
2018-Apr-21 02:48 10.0
2018-Apr-21 02:43 10.0
2018-Apr-21 02:38 004 2 gusting 5 10.6
2018-Apr-21 02:33 024 2 gusting 5 10.6
2018-Apr-21 02:28 003 4 gusting 5 10.6
2018-Apr-21 02:23 10.6
2018-Apr-21 02:18 10.6
2018-Apr-21 02:13 025 2 gusting 5 10.6
2018-Apr-21 02:08 003 2 gusting 5 10.6
2018-Apr-21 02:03 045 2 gusting 5 10.6
2018-Apr-21 01:58 022 2 gusting 4 10.6
2018-Apr-21 01:53 11.1
2018-Apr-21 01:48 022 2 gusting 5 11.1
2018-Apr-21 01:43 004 2 gusting 2 11.7
2018-Apr-21 01:38 045 0 gusting 2 11.7
2018-Apr-21 01:33 043 0 gusting 4 11.7
2018-Apr-21 01:28 041 2 gusting 4 11.7
2018-Apr-21 01:23 12.2
2018-Apr-21 01:18 315 0 gusting 2 12.2
2018-Apr-21 01:13 315 2 gusting 5 12.2
2018-Apr-21 01:08 11.7
2018-Apr-21 01:03 315 3 gusting 5 12.2
2018-Apr-21 00:58 135 13.3
2018-Apr-21 00:53 090 2 gusting 5 13.3
2018-Apr-21 00:48 090 1 gusting 4 13.3
2018-Apr-21 00:43 135 0 gusting 2 13.3
2018-Apr-21 00:38 135 0 gusting 1 13.3
2018-Apr-21 00:33 135 0 gusting 2 13.3
2018-Apr-21 00:28 066 1 gusting 2 12.8
2018-Apr-21 00:23 12.2
2018-Apr-21 00:18 022 2 gusting 5 11.7
2018-Apr-21 00:13 12.2
2018-Apr-21 00:08 002 2 gusting 5 13.9
2018-Apr-21 00:03 045 0 gusting 5 13.9
2018-Apr-20 23:58 123 2 gusting 5 13.9
2018-Apr-20 23:53 129 2 gusting 6 13.9
2018-Apr-20 23:48 128 2 gusting 6 13.9
2018-Apr-20 23:43 135 2 gusting 7 14.4
2018-Apr-20 23:38 090 2 gusting 5 14.4
2018-Apr-20 23:33 090 2 gusting 5 14.4
2018-Apr-20 23:28 090 2 gusting 5 14.4
2018-Apr-20 23:23 068 1 gusting 4 14.4
2018-Apr-20 23:18 090 2 gusting 6 14.4
2018-Apr-20 23:13 048 1 gusting 5 14.4
2018-Apr-20 23:08 135 2 gusting 5 14.4
2018-Apr-20 23:03 088 1 gusting 4 14.4
2018-Apr-20 22:58 135 1 gusting 4 14.4
2018-Apr-20 22:53 080 2 gusting 5 14.4
2018-Apr-20 22:48 083 2 gusting 5 14.4
2018-Apr-20 22:43 084 1 gusting 4 14.4
2018-Apr-20 22:38 055 1 gusting 2 14.4
2018-Apr-20 22:33 131 1 gusting 2 14.4
2018-Apr-20 22:28 090 0 gusting 2 14.4
2018-Apr-20 22:23 051 1 gusting 4 14.4
2018-Apr-20 22:18 090 2 gusting 5 14.4
2018-Apr-20 22:13 096 1 gusting 5 14.4
2018-Apr-20 22:08 074 2 gusting 5 15.0
2018-Apr-20 22:03 135 1 gusting 5 15.0
2018-Apr-20 21:58 135 2 gusting 5 15.0
2018-Apr-20 21:53 090 1 gusting 6 15.0
2018-Apr-20 21:48 135 3 gusting 6 15.0
2018-Apr-20 21:43 068 3 gusting 6 15.6
2018-Apr-20 21:38 071 2 gusting 5 15.6
2018-Apr-20 21:33 135 1 gusting 5 15.6
2018-Apr-20 21:28 129 2 gusting 5 15.6
2018-Apr-20 21:23 135 2 gusting 5 15.6
2018-Apr-20 21:18 135 4 gusting 7 15.6
2018-Apr-20 21:13 121 4 gusting 6 15.6
2018-Apr-20 21:08 068 3 gusting 6 15.6
2018-Apr-20 21:03 068 2 gusting 6 15.6
2018-Apr-20 20:58 068 3 gusting 6 15.6
2018-Apr-20 20:53 068 4 gusting 7 15.6
2018-Apr-20 20:48 068 5 gusting 8 15.6
2018-Apr-20 20:43 068 5 gusting 8 15.6
2018-Apr-20 20:38 068 4 gusting 8 15.6
2018-Apr-20 20:33 135 5 gusting 8 16.1
2018-Apr-20 20:28 180 4 gusting 10 16.1
2018-Apr-20 20:23 180 6 gusting 10 16.1
2018-Apr-20 20:18 140 6 gusting 11 16.1
2018-Apr-20 20:13 160 6 gusting 11 16.1
2018-Apr-20 20:08 140 6 gusting 13 16.1
2018-Apr-20 20:03 180 7 gusting 12 16.1
2018-Apr-20 19:58 180 6 gusting 11 16.1
2018-Apr-20 19:53 135 6 gusting 11 16.1
2018-Apr-20 19:48 161 6 gusting 11 16.7
2018-Apr-20 19:43 148 4 gusting 10 16.7
2018-Apr-20 19:38 141 5 gusting 7 16.7
2018-Apr-20 19:33 082 5 gusting 8 16.7
2018-Apr-20 19:28 135 6 gusting 8 16.7
2018-Apr-20 19:23 135 4 gusting 7 17.2
2018-Apr-20 19:18 135 4 gusting 8 17.2
2018-Apr-20 19:13 135 6 gusting 11 17.2
2018-Apr-20 19:08 135 5 gusting 8 17.2
2018-Apr-20 19:03 135 6 gusting 13 17.8
2018-Apr-20 18:58 135 6 gusting 13 17.8
2018-Apr-20 18:53 135 6 gusting 13 17.8
2018-Apr-20 18:48 135 7 gusting 18 18.3
2018-Apr-20 18:43 135 8 gusting 18 18.3
2018-Apr-20 18:38 135 6 gusting 14 18.3
2018-Apr-20 18:33 135 7 gusting 14 18.3
2018-Apr-20 18:28 135 6 gusting 17 18.9
2018-Apr-20 18:23 135 8 gusting 17 19.4
2018-Apr-20 18:18 135 6 gusting 11 19.4
2018-Apr-20 18:13 135 6 gusting 13 19.4
2018-Apr-20 18:08 135 7 gusting 14 20.0
2018-Apr-20 18:03 135 7 gusting 12 20.0
2018-Apr-20 17:58 135 7 gusting 13 20.0
2018-Apr-20 17:53 135 7 gusting 14 20.0
2018-Apr-20 17:48 135 7 gusting 11 20.6
2018-Apr-20 17:43 135 6 gusting 14 20.6
2018-Apr-20 17:38 135 7 gusting 13 20.6
2018-Apr-20 17:33 135 6 gusting 13 20.6
2018-Apr-20 17:28 135 7 gusting 13 20.6
2018-Apr-20 17:23 135 7 gusting 13 20.6
2018-Apr-20 17:18 135 9 gusting 17 20.6
2018-Apr-20 17:13 135 10 gusting 15 20.6
2018-Apr-20 17:08 135 6 gusting 14 21.1
2018-Apr-20 17:03 112 10 gusting 17 21.1
2018-Apr-20 16:58 112 9 gusting 17 21.1
2018-Apr-20 16:53 112 10 gusting 13 21.1
2018-Apr-20 16:48 112 6 gusting 13 21.7
2018-Apr-20 16:43 180 6 gusting 12 21.7
2018-Apr-20 16:38 135 6 gusting 13 21.7
2018-Apr-20 16:33 135 8 gusting 13 21.7
2018-Apr-20 16:28 135 5 gusting 11 21.7
2018-Apr-20 16:23 202 6 gusting 11 21.7
2018-Apr-20 16:18 202 7 gusting 13 21.1
2018-Apr-20 16:13 180 6 gusting 14 21.1
2018-Apr-20 16:08 171 6 gusting 14 21.7
2018-Apr-20 16:03 140 6 gusting 13 21.7
2018-Apr-20 15:58 180 6 gusting 17 21.7
2018-Apr-20 15:53 140 11 gusting 17 21.7
2018-Apr-20 15:48 129 6 gusting 11 21.7
2018-Apr-20 15:43 180 5 gusting 12 21.7
2018-Apr-20 15:38 180 8 gusting 15 21.7
2018-Apr-20 15:33 135 4 gusting 11 21.7
2018-Apr-20 15:28 142 6 gusting 13 21.1
2018-Apr-20 15:23 143 7 gusting 14 21.1
2018-Apr-20 15:18 180 5 gusting 12 21.1
2018-Apr-20 15:13 125 7 gusting 13 21.1
2018-Apr-20 15:08 135 7 gusting 12 21.7
2018-Apr-20 15:03 096 5 gusting 10 21.7
2018-Apr-20 14:58 068 3 gusting 8 21.1
2018-Apr-20 14:53 180 6 gusting 13 21.1
2018-Apr-20 14:48 180 7 gusting 13 21.1
2018-Apr-20 14:43 144 8 gusting 17 21.1
2018-Apr-20 14:38 135 7 gusting 13 21.7
2018-Apr-20 14:33 142 7 gusting 14 21.1
2018-Apr-20 14:28 135 7 gusting 14 21.1
2018-Apr-20 14:23 173 7 gusting 13 21.1
2018-Apr-20 14:18 141 7 gusting 14 20.6
2018-Apr-20 14:13 135 6 gusting 13 21.1
2018-Apr-20 14:08 180 10 gusting 13 20.6
2018-Apr-20 14:03 141 8 gusting 13 20.6
2018-Apr-20 13:58 180 7 gusting 11 20.6
2018-Apr-20 13:53 180 7 gusting 18 20.6
2018-Apr-20 13:48 156 7 gusting 13 20.6
2018-Apr-20 13:43 104 5 gusting 14 20.6
2018-Apr-20 13:38 135 4 gusting 10 20.6
2018-Apr-20 13:33 135 5 gusting 10 20.6
2018-Apr-20 13:28 130 4 gusting 12 20.0
2018-Apr-20 13:23 129 6 gusting 11 20.0
2018-Apr-20 13:18 099 6 gusting 14 19.4
2018-Apr-20 13:13 175 6 gusting 13 19.4
2018-Apr-20 13:08 127 9 gusting 13 19.4
2018-Apr-20 13:03 090 5 gusting 13 19.4
2018-Apr-20 12:58 090 8 gusting 18 19.4
2018-Apr-20 12:53 154 6 gusting 15 19.4
2018-Apr-20 12:48 135 4 gusting 11 19.4
2018-Apr-20 12:43 153 6 gusting 12 18.9
2018-Apr-20 12:38 142 6 gusting 8 18.9
2018-Apr-20 12:33 135 5 gusting 11 18.9
2018-Apr-20 12:28 100 4 gusting 7 18.9
2018-Apr-20 12:23 135 5 gusting 13 18.3
2018-Apr-20 12:18 135 5 gusting 8 18.9
2018-Apr-20 12:13 122 3 gusting 6 18.3
2018-Apr-20 12:08 056 4 gusting 8 18.3
2018-Apr-20 12:03 049 5 gusting 8 17.8
2018-Apr-20 11:58 099 4 gusting 12 18.3
2018-Apr-20 11:53 050 5 gusting 11 18.3
2018-Apr-20 11:48 129 5 gusting 11 18.3
2018-Apr-20 11:43 098 3 gusting 8 17.8
2018-Apr-20 11:38 198 3 gusting 10 17.8
2018-Apr-20 11:33 090 4 gusting 10 17.2
2018-Apr-20 11:28 049 7 gusting 13 17.2
2018-Apr-20 11:23 068 5 gusting 12 17.8
2018-Apr-20 11:18 096 7 gusting 13 17.8
2018-Apr-20 11:13 127 4 gusting 11 17.8
2018-Apr-20 11:08 135 6 gusting 14 17.8
2018-Apr-20 11:03 214 2 gusting 8 18.3
2018-Apr-20 10:58 163 6 gusting 11 17.2
2018-Apr-20 10:53 135 3 gusting 11 17.2
2018-Apr-20 10:48 135 6 gusting 13 17.2
2018-Apr-20 10:43 073 5 gusting 13 17.2
2018-Apr-20 10:38 127 7 gusting 13 16.7
2018-Apr-20 10:33 097 8 gusting 13 17.2
2018-Apr-20 10:28 090 7 gusting 11 17.2
2018-Apr-20 10:23 169 5 gusting 11 16.7
2018-Apr-20 10:18 090 8 gusting 12 16.7
2018-Apr-20 10:13 135 7 gusting 17 17.2
2018-Apr-20 10:08 084 4 gusting 8 16.7
2018-Apr-20 10:03 097 5 gusting 11 16.1
2018-Apr-20 09:58 072 4 gusting 11 16.7
2018-Apr-20 09:53 135 4 gusting 8 16.1
2018-Apr-20 09:48 141 5 gusting 10 16.1
2018-Apr-20 09:43 135 5 gusting 11 16.1
2018-Apr-20 09:38 135 5 gusting 11 16.1
2018-Apr-20 09:33 126 6 gusting 12 16.1
2018-Apr-20 09:28 108 4 gusting 8 16.7
2018-Apr-20 09:23 135 4 gusting 7 15.6
2018-Apr-20 09:18 090 3 gusting 7 15.6
2018-Apr-20 09:13 090 6 gusting 10 15.6
2018-Apr-20 09:08 090 5 gusting 10 15.6
2018-Apr-20 09:03 048 5 gusting 8 15.6
2018-Apr-20 08:58 050 5 gusting 8 15.6
2018-Apr-20 08:53 086 4 gusting 8 15.6
2018-Apr-20 08:48 045 3 gusting 7 15.6
2018-Apr-20 08:43 090 4 gusting 8 15.6
2018-Apr-20 08:38 065 4 gusting 7 15.6
2018-Apr-20 08:33 044 1 gusting 6 15.6
2018-Apr-20 08:28 090 4 gusting 7 15.0
2018-Apr-20 08:23 034 2 gusting 5 15.6
2018-Apr-20 08:18 052 2 gusting 5 15.6
2018-Apr-20 08:13 098 2 gusting 6 15.0
2018-Apr-20 08:08 042 3 gusting 6 15.0
2018-Apr-20 08:03 010 2 gusting 6 15.0
2018-Apr-20 07:58 084 3 gusting 6 14.4
2018-Apr-20 07:53 063 2 gusting 6 14.4
2018-Apr-20 07:48 003 3 gusting 6 14.4
2018-Apr-20 07:43 045 4 gusting 6 14.4
2018-Apr-20 07:38 045 4 gusting 6 13.9
2018-Apr-20 07:33 050 4 gusting 6 14.4
2018-Apr-20 07:28 040 3 gusting 6 13.9
2018-Apr-20 07:23 045 1 gusting 5 13.9
2018-Apr-20 07:18 045 2 gusting 6 13.3
2018-Apr-20 07:13 045 4 gusting 6 13.3
2018-Apr-20 07:08 045 3 gusting 6 12.8
2018-Apr-20 07:03 045 2 gusting 5 12.8
2018-Apr-20 06:58 12.8
2018-Apr-20 06:53 039 5 gusting 6 12.2
2018-Apr-20 06:48 041 2 gusting 6 12.2
2018-Apr-20 06:43 022 2 gusting 6 11.7
2018-Apr-20 06:38 019 2 gusting 5 11.7
2018-Apr-20 06:33 325 1 gusting 5 11.1
2018-Apr-20 06:28 020 0 gusting 4 11.1
2018-Apr-20 06:23 10.6
2018-Apr-20 06:18 10.6
2018-Apr-20 06:13 10.6
2018-Apr-20 06:08 10.0
2018-Apr-20 06:03 022 0 gusting 2 10.0
2018-Apr-20 05:58 10.0
2018-Apr-20 05:53 026 2 gusting 5 10.6
2018-Apr-20 05:48 10.6
2018-Apr-20 05:43 10.6
2018-Apr-20 05:38 10.6
2018-Apr-20 05:33 10.6
2018-Apr-20 05:28 10.6
2018-Apr-20 05:23 006 0 gusting 2 10.6
2018-Apr-20 05:18 019 0 gusting 2 11.1
2018-Apr-20 05:13 315 0 gusting 2 11.1
2018-Apr-20 05:08 315 0 gusting 1 11.1
2018-Apr-20 05:03 348 11.7
2018-Apr-20 04:58 045 1 gusting 2 11.7
2018-Apr-20 04:53 045 1 gusting 2 11.7
2018-Apr-20 04:48 045 0 gusting 2 11.7
2018-Apr-20 04:43 045 0 gusting 2 11.7
2018-Apr-20 04:38 042 1 gusting 2 11.1
2018-Apr-20 04:33 11.1
2018-Apr-20 04:28 025 2 gusting 4 10.6
2018-Apr-20 04:23 10.6
2018-Apr-20 04:18 315 3 gusting 5 10.6
2018-Apr-20 04:13 10.6
2018-Apr-20 04:08 10.6
2018-Apr-20 04:03 315 1 gusting 2 10.6
2018-Apr-20 03:58 315 1 gusting 5 10.6
2018-Apr-20 03:53 022 1 gusting 4 11.1
2018-Apr-20 03:48 11.1
2018-Apr-20 03:43 045 0 gusting 2 11.1
2018-Apr-20 03:38 045 0 gusting 2 11.1
2018-Apr-20 03:33 025 2 gusting 2 11.1
2018-Apr-20 03:28 045 1 gusting 2 11.7
2018-Apr-20 03:23 045 11.7
2018-Apr-20 03:18 045 12.2
2018-Apr-20 03:13 045 0 gusting 1 12.2
2018-Apr-20 03:08 045 0 gusting 2 12.2
2018-Apr-20 03:03 045 1 gusting 4 12.2
2018-Apr-20 02:58 045 2 gusting 4 11.7
2018-Apr-20 02:53 027 1 gusting 5 12.2
2018-Apr-20 02:48 11.7
2018-Apr-20 02:43 022 2 gusting 4 11.7
2018-Apr-20 02:38 019 1 gusting 2 12.2
2018-Apr-20 02:33 003 0 gusting 2 12.2
2018-Apr-20 02:23 045 0 gusting 2 12.8
2018-Apr-20 02:18 045 1 gusting 2 13.3
2018-Apr-20 02:13 045 0 gusting 2 13.9
2018-Apr-20 02:08 021 1 gusting 2 13.9
2018-Apr-20 02:03 090 0 gusting 1 14.4
2018-Apr-20 01:43 148 0 gusting 5 14.4
2018-Apr-20 01:38 180 2 gusting 6 14.4
2018-Apr-20 01:33 135 2 gusting 6 14.4
2018-Apr-20 01:28 090 3 gusting 6 14.4
2018-Apr-20 01:23 099 2 gusting 6 14.4
2018-Apr-20 01:18 090 3 gusting 6 14.4
2018-Apr-20 01:13 097 3 gusting 7 14.4
2018-Apr-20 01:03 087 4 gusting 6 15.0
2018-Apr-20 00:58 050 2 gusting 6 15.0
2018-Apr-20 00:53 126 4 gusting 11 15.6
2018-Apr-20 00:48 129 5 gusting 8 15.6
2018-Apr-20 00:43 135 3 gusting 6 15.6
2018-Apr-20 00:38 045 1 gusting 2 15.6
2018-Apr-20 00:23 090 2 gusting 6 15.6
2018-Apr-20 00:18 086 2 gusting 6 16.1
2018-Apr-20 00:13 072 2 gusting 5 16.1
2018-Apr-20 00:08 049 1 gusting 4 16.1
2018-Apr-20 00:03 071 2 gusting 6 16.1
2018-Apr-19 23:58 051 3 gusting 6 16.1
2018-Apr-19 23:53 135 4 gusting 11 16.1
2018-Apr-19 23:48 130 3 gusting 6 16.7
2018-Apr-19 23:43 135 5 gusting 6 16.7
2018-Apr-19 23:38 135 4 gusting 8 16.7
2018-Apr-19 23:33 172 2 gusting 5 16.7
2018-Apr-19 23:28 135 3 gusting 6 16.7
2018-Apr-19 23:23 045 2 gusting 5 16.7
2018-Apr-19 23:18 045 0 gusting 2 16.7
2018-Apr-19 23:13 027 16.7
2018-Apr-19 23:08 068 1 gusting 8 16.7
2018-Apr-19 23:03 090 5 gusting 8 16.7
2018-Apr-19 22:58 130 2 gusting 8 16.7
2018-Apr-19 22:53 090 1 gusting 5 16.7
2018-Apr-19 22:48 068 1 gusting 2 16.7
2018-Apr-19 22:43 068 0 gusting 5 16.7
2018-Apr-19 22:38 135 2 gusting 6 16.7
2018-Apr-19 22:33 180 3 gusting 8 16.7
2018-Apr-19 22:28 130 2 gusting 6 16.7
2018-Apr-19 22:23 143 4 gusting 13 16.7
2018-Apr-19 22:18 109 5 gusting 12 16.7
2018-Apr-19 22:13 143 7 gusting 13 16.7
2018-Apr-19 22:08 173 7 gusting 13 16.7
2018-Apr-19 22:03 116 6 gusting 13 16.7
2018-Apr-19 21:58 135 8 gusting 13 16.7
2018-Apr-19 21:53 139 5 gusting 11 16.7
2018-Apr-19 21:48 102 4 gusting 8 16.7
2018-Apr-19 21:43 138 6 gusting 11 16.7
2018-Apr-19 21:38 090 2 gusting 5 16.7
2018-Apr-19 21:33 094 2 gusting 5 16.7
2018-Apr-19 21:28 135 2 gusting 5 16.7
2018-Apr-19 21:23 135 2 gusting 6 16.7
2018-Apr-19 21:18 045 1 gusting 6 16.7
2018-Apr-19 21:13 045 2 gusting 6 16.7
2018-Apr-19 21:08 135 4 gusting 8 16.7
2018-Apr-19 21:03 135 6 gusting 10 17.2
2018-Apr-19 20:58 135 4 gusting 7 17.2
2018-Apr-19 20:53 135 5 gusting 11 17.2
2018-Apr-19 20:48 173 5 gusting 8 17.2
2018-Apr-19 20:43 174 2 gusting 8 17.2
2018-Apr-19 20:38 135 4 gusting 8 17.2
2018-Apr-19 20:33 135 5 gusting 10 17.2
2018-Apr-19 20:28 139 5 gusting 13 17.8
2018-Apr-19 20:23 162 5 gusting 12 17.8
2018-Apr-19 20:18 148 5 gusting 11 17.8
2018-Apr-19 20:13 068 5 gusting 11 17.8
2018-Apr-19 20:08 068 6 gusting 11 17.8
2018-Apr-19 20:03 077 6 gusting 13 17.8
2018-Apr-19 19:58 135 7 gusting 13 18.3
2018-Apr-19 19:53 154 6 gusting 12 18.3
2018-Apr-19 19:48 180 6 gusting 12 18.3
2018-Apr-19 19:43 161 6 gusting 12 18.3
2018-Apr-19 19:38 180 6 gusting 13 18.3
2018-Apr-19 19:33 142 7 gusting 13 18.9
2018-Apr-19 19:28 124 8 gusting 13 18.9
2018-Apr-19 19:23 141 6 gusting 13 18.9
2018-Apr-19 19:18 180 6 gusting 13 18.9
2018-Apr-19 19:13 139 6 gusting 12 19.4
2018-Apr-19 19:08 180 6 gusting 12 19.4
2018-Apr-19 19:03 180 5 gusting 10 19.4
2018-Apr-19 18:58 153 6 gusting 8 19.4
2018-Apr-19 18:53 180 5 gusting 8 20.0
2018-Apr-19 18:48 096 6 gusting 11 20.0
2018-Apr-19 18:43 174 6 gusting 11 20.0
2018-Apr-19 18:38 180 8 gusting 13 20.6
2018-Apr-19 18:33 160 6 gusting 13 20.6
2018-Apr-19 18:28 174 5 gusting 11 20.6
2018-Apr-19 18:23 180 5 gusting 12 21.1
2018-Apr-19 18:18 139 6 gusting 12 21.1
2018-Apr-19 18:13 180 5 gusting 8 21.7
2018-Apr-19 18:08 180 5 gusting 8 21.7
2018-Apr-19 18:03 180 5 gusting 8 21.7
2018-Apr-19 17:58 180 5 gusting 8 21.7
2018-Apr-19 17:53 180 5 gusting 11 22.2
2018-Apr-19 17:48 172 6 gusting 11 22.2
2018-Apr-19 17:43 177 4 gusting 6 22.2
2018-Apr-19 17:38 180 6 gusting 12 22.2
2018-Apr-19 17:33 180 5 gusting 10 22.8
2018-Apr-19 17:28 161 6 gusting 11 22.8
2018-Apr-19 17:23 180 5 gusting 8 22.8
2018-Apr-19 17:18 180 5 gusting 8 22.2
2018-Apr-19 17:13 180 5 gusting 7 22.8
2018-Apr-19 17:08 180 6 gusting 11 22.2
2018-Apr-19 17:03 180 6 gusting 10 22.2